Skip Page Navigation
NASA JPL Caltech
NASA Logo - Jet Propulsion Laboratory + View the NASA Portal
+ Near-Earth Object (NEO) Program
Search JPL
JPL Home Earth Solar System Stars & Galaxies Technology
JPL Solar System Dynamics
BODIES ORBITS EPHEMERIDES TOOLS PHYSICAL DATA DISCOVERY FAQ SITE MAP
JPL Small-Body Database Browser
Search: [ help ]  
157194 Saddlemyer (2004 QR16)
Classification: Main-belt Asteroid          SPK-ID: 2157194
Ephemeris | Orbit Diagram | Orbital Elements | Physical Parameters | Discovery Circumstances ]

[ hide orbit diagram ]
Orbit Diagram
Note: Make sure you have Java enabled on your browser to see the applet. This applet is provided as a 3D orbit visualization tool. The applet was implemented using 2-body methods, and hence should not be used for determining accurate long-term trajectories (over several years or decades) or planetary encounter circumstances. For accurate long-term ephemerides, please instead use our Horizons system.
Orbit Viewer

Additional Notes: the orbits shown in the applet are color coded. The planets are white lines, and the asteroid/comet is a blue line. The bright white line indicates the portion of the orbit that is above the ecliptic plane, and the darker portion is below the ecliptic plane. Likewise for the asteroid/comet orbit, the light blue indicates the portion above the ecliptic plane, and the dark blue the portion below the ecliptic plane.

Orbit Viewer applet originally written and kindly provided by Osamu Ajiki (AstroArts), and further modified by Ron Baalke (JPL).


Orbital Elements at Epoch 2456400.5 (2013-Apr-18.0) TDB
Reference: MPO118872 (heliocentric ecliptic J2000)
 Element Value Uncertainty (1-sigma)   Units 
e 0.0421619 n/a  
a 2.6057048 n/a AU
q 2.4958433 n/a AU
i 5.13537 n/a deg
node 93.84419 n/a deg
peri 80.93199 n/a deg
M 172.87008 n/a deg
tp 2455662.7595783
(2011-Apr-11.25957830)
n/a JED
period 1536.3361422
4.21
n/a
n/a
d
yr
n 0.23432372 n/a deg/d
Q 2.7155663 n/a AU
  Orbit Determination Parameters
   # obs. used (total)      49  
   first obs. used      1994-??-??  
   last obs. used      2007-04-16  
   # oppositions      6  
   planetary ephem.      DE403  
   condition code      1  
   fit RMS      0.60  
   data source      MPC:mpu  
   producer      MPCADO  

Additional Information
 T_jup = 3.405 

Ephemeris | Orbit Diagram | Orbital Elements | Physical Parameters | Discovery Circumstances ]

Physical Parameter Table
Parameter Symbol Value Units Sigma Reference Notes
absolute magnitude H 16.3 mag n/a MPO118872  

157194 Saddlemyer           Discovered 2004 Aug. 21 by D. D. Balam at Mauna Kea.
Leslie K. Saddlemyer (b. 1959) is a systems engineer at the Herzberg Institute of Astrophysics, National Research Council of Canada. Currently the project manager for the Gemini Planetary Imager, he has been responsible for care and maintenance of the 1.82-m Plaskett Telescope at the Dominion Astrophysical Observatory.
NOTE: some special characters may not display properly (any characters within {} are an attempt to place the proper accent above a character)
Reference: 20070730/MPCPages.arcLast Updated: 2007-08-07
Ephemeris | Orbit Diagram | Orbital Elements | Physical Parameters | Discovery Circumstances ]
ABOUT SSD CREDITS/AWARDS PRIVACY/COPYRIGHT GLOSSARY LINKS
FirstGov 2013-May-20 18:53 UT
(server date/time)  
NASA Home Page
Site Manager:   Donald K. Yeomans
Webmaster  Alan B. Chamberlin